Lexington Weather

Lexington, Massachusetts, USA

44°F
5/12/2021 4:48am 
  • Lexington Conditions: Clear
  • Temperature: 44.4°F / 6.9°CColder 0.2°F than last hour.
  • Dew Point: 33.4°FIncreased 1.0°Fsince last hour.
  • Relative Humidity: 65%Increased 3.0% since last hour.
  • Wind: Wind from W W 3 mph, 10-min avg: 1 mph, gust: 3 mph
  • Barometer: 29.92 in Steady
  • Visibility: 10 miles
  • Rain Today: 0.00 in
  •   

Regional Weather Roundup
for Boston / Norton, MA

        
000
ASUS41 KBOX 111904
RWRBOX

REGIONAL WEATHER ROUNDUP
NATIONAL WEATHER SERVICE BOSTON/NORTON MA
300 PM EDT TUE MAY 11 2021

NOTE:  "FAIR" INDICATES FEW OR NO CLOUDS BELOW 12,000 FEET WITH NO 
SIGNIFICANT WEATHER AND/OR OBSTRUCTIONS TO VISIBILITY.

MAZALL-112000-
EASTERN MASSACHUSETTS
  
CITY           SKY/WX    TMP DP  RH WIND       PRES   REMARKS
BOSTON         MOSUNNY   65  25  22 W22G29    29.89F                  
BEVERLY        SUNNY     63  26  24 W18G24    29.87F                  
LAWRENCE       PTSUNNY   60  27  28 W9G22     29.89F                  
BEDFORD        PTSUNNY   61  26  26 W17G29    29.89F                  
BLUE HILL        N/A     62  25  24 W21G33    29.88F                  
NORWOOD        MOSUNNY   64  26  23 NW18G33   29.89F                  
MARSHFIELD     NOT AVBL                                               
PLYMOUTH       MOSUNNY   62  28  27 W15G22    29.88F                  
TAUNTON        SUNNY     66  26  22 W10G25    29.90F                  
NEW BEDFORD    MOSUNNY   64  26  23 W16G31    29.90F                  
$$

MAZALL-112000-
CAPE COD AND THE ISLANDS
  
CITY           SKY/WX    TMP DP  RH WIND       PRES   REMARKS
FALMOUTH       SUNNY     61  36  39 SW21G31   29.90F                  
HYANNIS        SUNNY     62  40  44 SW21G29   29.89F                  
CHATHAM        SUNNY     60  38  43 SW15G26   29.91F                  
PROVINCETOWN   SUNNY     60  33  36 NW8       29.91F                  
NANTUCKET      SUNNY     58  45  62 SW18      29.94F                  
MARTHAS VNYRD  SUNNY     61  35  37 SW16G29   29.92F                  
$$
 
MAZALL-112000-
CENTRAL AND WESTERN MASSACHUSETTS
  
CITY           SKY/WX    TMP DP  RH WIND       PRES   REMARKS
WORCESTER      PTSUNNY   57  24  28 W18G35    29.92F                  
FITCHBURG      MOSUNNY   61  25  25 W14G32    29.92F                  
ORANGE         PTSUNNY   58  21  24 W16G29    29.94F                  
SPRINGFIELD    PTSUNNY   62  24  23 NW13G25   29.93F                  
WESTFIELD      PTSUNNY   61  24  24 W10G28    29.94F                  
NORTH ADAMS    PTSUNNY   57  24  28 W21G30    29.96F                  
PITTSFIELD     PTSUNNY   55  26  32 NW18G28   29.95F                  
$$
 
RIZALL-112000-
RHODE ISLAND
  
CITY           SKY/WX    TMP DP  RH WIND       PRES   REMARKS
PROVIDENCE     MOSUNNY   65  25  22 W17G26    29.92F                  
NEWPORT        SUNNY     63  30  28 NW14      29.91F                  
BLOCK ISLAND   SUNNY     60  35  39 W23G29    29.96F                  
SMITHFIELD     MOSUNNY   63  26  24 W15G28    29.92F                  
WESTERLY       MOSUNNY   61  31  32 SW9G24    29.94S                  
$$
 
CTZALL-112000-
CONNECTICUT
  
CITY           SKY/WX    TMP DP  RH WIND       PRES   REMARKS
BRADLEY INTL   PTSUNNY   64  23  21 NW21G32   29.94F                  
HARTFORD       CLOUDY    63  25  23 W8        29.94F                  
BRIDGEPORT     MOSUNNY   66  29  24 W13G22    29.97F                  
DANBURY        CLOUDY    61  26  26 W10G18    29.99S                  
GROTON         MOSUNNY   59  40  49 SW20G30   29.93F                  
NEW HAVEN      MOSUNNY   64  31  28 NW20G28   29.96F                  
CHESTER        FAIR      64  25  22 W9G20     29.95F                  
MERIDEN        PTSUNNY   62  24  23 W14G20    29.96S                  
WILLIMANTIC    PTSUNNY   62  26  25 NW9G26    29.94F                  
OXFORD         PTSUNNY   58  26  29 NW14G22   29.97F                  
$$

MEZ002-015-021-024-NHZ003-005-008-011-012-014-VTZ005-008-112000-
NORTHERN NEW ENGLAND
  
CITY           SKY/WX    TMP DP  RH WIND       PRES   REMARKS
PORTLAND ME    CLOUDY    59  33  37 W15G24    29.84S                  
BANGOR ME      CLOUDY    53  42  66 NW13G23   29.81F                  
CONCORD NH     PTSUNNY   58  24  27 W18G24    29.88F                  
MANCHESTER NH  PTSUNNY   62  22  21 W10G21    29.87F                  
NASHUA NH      PTSUNNY   61  26  26 W12G24    29.91S                  
PORTSMOUTH NH  PTSUNNY   63  19  18 W16G25    29.87F                  
JAFFREY NH     PTSUNNY   56  24  29 NW10G21   29.92F                  
KEENE NH       PTSUNNY   57  23  26 W14G23    29.92F                  
BURLINGTON VT  PTSUNNY   56  28  34 N8        29.89F                  
MT. WASHINGTON SNOW      23  23 100 W56         N/A  VSB 0   WCI   1  
$$

NYZ052-076-112000-
EASTERN NEW YORK
  
CITY           SKY/WX    TMP DP  RH WIND       PRES   REMARKS
ALBANY         PTSUNNY   54  28  36 W18G26    29.99F                  
NEW YORK CITY  PTSUNNY   65  25  22 W13G24    29.98F                  
$$
 
ANZALL-112000-
MARINE OBSERVATIONS
  
STATION/POSITION TIME  TEMP    WIND        PRES    VSBY  WAVE
                       AIR SEA DIR/SP/G                  HT/PER
                 (UTC) (F)     (DEG/KT/KT) (MB)    (MI)  (FT/S)
BOSTON BUOY      1840   54 49  260/ 14/ 16 1012.1F
BUZZARDS BAY     1800          230/ 20/ 22 1014.6F
NANTUCKET SOUND  1840      54                N/A
MASS BAY-STELLWA 1804   55     260/ 10/ 12 1011.1F  1 7/8  2/ 4
ISLE OF SHOALS   1800   57     270/ 17/ 18 1011.0F
S OF BLOCK IS    1826      50                N/A           5/ 8
$$

......................KEY.........................
  SKY/WX - SKY CONDITION/PRESENT WEATHER
  TMP    - TEMPERATURE IN FAHRENHEIT
  DWPT   - DEWPOINT IN FAHRENHEIT
  RH     - RELATIVE HUMIDITY IN PERCENT
  WIND   - DIRECTION AND SPEED IN MPH
  PRES   - MEAN SEA LEVEL PRESSURE IN INCHES OF HG
  WCI    - WIND CHILL INDEX
  VSB    - VISIBILITY IN MILES
  HX     - HEAT INDEX
  TC     - TEMPERATURE IN CELSIUS
  VRB    - VARIABLE WIND DIRECTION
  N/A    - NOT AVAILABLE
  
      

Other recent Regional Weather Roundups

Wed May 12, 4:04am

Wed May 12, 3:04am

Wed May 12, 2:04am

Wed May 12, 1:04am

Wed May 12, 12:05am

Tue May 11, 11:05pm

Tue May 11, 10:04pm

Tue May 11, 9:05pm

Tue May 11, 8:05pm

Tue May 11, 7:04pm

Tue May 11, 6:04pm

Tue May 11, 5:04pm

Tue May 11, 4:05pm

Tue May 11, 2:05pm

Tue May 11, 1:04pm

Tue May 11, 12:05pm

Tue May 11, 11:05am

Tue May 11, 10:04am

Tue May 11, 9:04am

Tue May 11, 8:04am

Tue May 11, 7:05am

Tue May 11, 6:04am

Tue May 11, 5:04am

Tue May 11, 4:04am

Tue May 11, 3:04am

Tue May 11, 2:04am

Tue May 11, 1:04am

Tue May 11, 12:04am

Mon May 10, 11:04pm

Mon May 10, 10:04pm

Mon May 10, 9:05pm

Mon May 10, 8:04pm

Mon May 10, 7:05pm

Mon May 10, 6:04pm

Mon May 10, 5:04pm

Mon May 10, 4:04pm

Mon May 10, 3:04pm

Mon May 10, 2:04pm

Mon May 10, 1:04pm

Mon May 10, 12:04pm

Mon May 10, 11:05am

Mon May 10, 10:04am

Mon May 10, 9:04am

Mon May 10, 8:04am

Mon May 10, 7:04am

Mon May 10, 6:04am

Mon May 10, 5:05am

Mon May 10, 4:04am

Mon May 10, 3:04am

Mon May 10, 2:04am

Mon May 10, 1:04am

Mon May 10, 12:04am

Sun May 9, 11:04pm

Sun May 9, 10:04pm

Sun May 9, 9:04pm

Sun May 9, 8:04pm

Sun May 9, 7:05pm

Sun May 9, 6:04pm

Sun May 9, 5:04pm

Sun May 9, 4:04pm

Sun May 9, 3:04pm

Sun May 9, 2:04pm

Sun May 9, 1:05pm

Sun May 9, 12:04pm

Sun May 9, 11:05am

Sun May 9, 10:04am

Sun May 9, 9:04am

Sun May 9, 8:04am

Sun May 9, 7:04am

Sun May 9, 6:04am

Sun May 9, 5:04am

Sun May 9, 4:04am

Sun May 9, 3:04am

Sun May 9, 2:04am

Sun May 9, 1:05am

Sun May 9, 12:04am

Sat May 8, 11:05pm

Sat May 8, 10:04pm

Sat May 8, 9:05pm

Sat May 8, 8:04pm

Sat May 8, 7:04pm

Sat May 8, 6:04pm

Sat May 8, 5:05pm

Sat May 8, 4:04pm

Sat May 8, 3:05pm

Sat May 8, 2:05pm

Sat May 8, 1:05pm

Sat May 8, 12:04pm

Sat May 8, 11:05am

Sat May 8, 10:04am

Sat May 8, 9:04am

Sat May 8, 8:04am

Sat May 8, 7:04am

Sat May 8, 6:04am

Sat May 8, 5:04am

Sat May 8, 4:04am

Sat May 8, 3:04am

Sat May 8, 2:04am

Sat May 8, 1:05am

Sat May 8, 12:04am

Fri May 7, 11:04pm

Fri May 7, 10:05pm

Fri May 7, 9:04pm

Fri May 7, 8:04pm

Fri May 7, 7:05pm

Fri May 7, 6:04pm

Fri May 7, 5:05pm

Fri May 7, 4:04pm

Fri May 7, 3:04pm

Fri May 7, 2:05pm

Fri May 7, 1:04pm

Fri May 7, 12:04pm

Fri May 7, 11:05am

Fri May 7, 10:04am

Fri May 7, 9:04am

Fri May 7, 8:05am

Fri May 7, 7:04am

Fri May 7, 6:04am

Fri May 7, 5:04am

Fri May 7, 4:04am

Fri May 7, 3:04am

Fri May 7, 2:05am

Fri May 7, 1:04am

Fri May 7, 12:05am

Thu May 6, 11:04pm

Thu May 6, 10:04pm

Thu May 6, 9:05pm

Thu May 6, 8:04pm

Thu May 6, 7:04pm

Thu May 6, 6:04pm

Thu May 6, 5:05pm

Thu May 6, 4:04pm

Thu May 6, 3:04pm

Thu May 6, 2:05pm

Thu May 6, 1:04pm

Thu May 6, 12:04pm

Thu May 6, 11:04am

Thu May 6, 10:04am

Thu May 6, 9:04am

Thu May 6, 8:04am

Thu May 6, 7:04am

Thu May 6, 6:04am

Thu May 6, 5:04am

Thu May 6, 4:04am

Thu May 6, 3:04am

Thu May 6, 2:05am

Thu May 6, 1:04am

Thu May 6, 12:05am

Wed May 5, 11:04pm

Wed May 5, 10:04pm

Wed May 5, 9:05pm

Wed May 5, 8:04pm

Wed May 5, 7:05pm

Wed May 5, 6:04pm

Wed May 5, 5:04pm

Wed May 5, 4:04pm

Wed May 5, 3:04pm

Wed May 5, 2:05pm

Wed May 5, 1:05pm

Wed May 5, 12:04pm

Wed May 5, 11:05am

Wed May 5, 10:04am

Wed May 5, 9:04am

Wed May 5, 8:04am

Wed May 5, 7:04am

Wed May 5, 6:05am

Wed May 5, 5:04am

Meta data:

ID: a3dd3e11-198d-4796-9c85-767f572954ae
Link: https://api.weather.gov/products/a3dd3e11-198d-4796-9c85-767f572954ae